[[{"header":{"parameterUnit":"m.s-1","parameterCategory":1,"la1":30.2991,"la2":30.254,"lo1":-89.0895,"lo2":-89.0444,"dy":0.0017,"dx":0.0017,"nx":28,"ny":28,"refTime":"2025-08-03T03:00:00:Z","depth":0,"parameterNumber":2,"parameterNumberName":"U-component_of_WINDS"},"data":[0,0,0,0,0,0,0,0,0,0,0,0,0,0,0,0,0,0,0,0,0,0,0,0,0,0,0,0,0,0,0,0,0,0,0,0,0,0,0,0,0,0,0,0,0,0,0,0,0,0,0,0,0,0,0,0,0,0,2.3612,2.3613,0,2.3636,2.3636,2.3636,2.3601,2.36,2.3599,2.3598,2.3618,2.362,2.3622,0,0,0,0,0,0,0,0,0,0,0,0,0,2.3537,2.3539,2.3612,2.3613,2.3613,2.3636,2.3636,2.3636,2.3601,2.36,2.3599,2.3597,2.3618,2.362,2.3622,0,0,0,0,0,0,0,0,0,0,0,0,0,2.3566,2.3539,2.3612,2.3599,2.3598,2.3635,2.3636,2.3636,2.3602,2.36,2.3598,2.3596,2.3617,2.362,2.3622,2.3674,0,0,2.363,2.3631,0,0,0,0,0,0,0,0,2.3564,2.3569,2.36,2.36,2.3598,2.3614,2.3617,2.3649,2.3602,2.36,2.3598,2.3596,2.3618,2.362,2.3629,2.3675,2.3676,2.363,2.3631,2.3633,2.3633,0,0,0,0,0,0,0,2.3562,2.3567,2.3621,2.3601,2.36,2.3591,2.3593,2.3623,2.3619,2.36,2.3598,2.3601,2.3617,2.3626,2.3629,2.3676,2.363,2.3632,2.3634,2.3635,2.3767,2.3769,0,0,0,0,0,0,2.3562,2.3566,2.3621,2.3622,2.3577,2.3594,2.3596,2.3611,2.3618,2.3618,2.3603,2.3599,2.3623,2.3626,2.3629,2.3691,2.3633,2.3635,2.3636,2.3765,2.3767,2.377,0,0,0,0,0,0,2.3561,2.3568,2.362,2.3594,2.3599,2.3597,2.3614,2.3612,2.3621,2.362,2.3619,2.3613,2.3622,2.3626,2.3663,2.3691,2.3636,2.3638,2.3763,2.3766,2.3769,2.3814,0,0,0,0,0,0,2.3559,2.3567,2.3587,2.3594,2.3601,2.3654,2.3615,2.3614,2.3626,2.3622,2.3629,2.3629,2.362,2.366,2.3666,2.3693,2.364,2.376,2.3764,2.3768,2.381,2.3818,2.3825,0,0,0,0,0,2.3556,2.3597,2.3588,2.3595,2.3626,2.3655,2.3659,2.3649,2.3628,2.3648,2.3648,2.3629,2.3688,2.3664,2.3671,2.3699,2.3758,2.3763,2.3767,2.3806,2.3816,2.3825,0,0,0,0,0,0,2.3591,2.3598,2.3587,2.3632,2.3644,2.3649,2.3673,2.366,2.3677,2.3672,2.3659,2.3661,2.3701,2.3704,2.3678,2.375,2.3719,2.3725,2.3747,2.3756,2.3764,2.3761,2.3642,0,0,0,0,0,2.3605,2.3629,2.3633,2.3673,2.3679,2.3676,2.3688,2.3681,2.3691,2.3695,2.3698,2.3708,2.3729,2.3743,2.3762,2.3811,2.3812,2.3834,2.3842,2.3848,2.3852,2.3879,2.3889,2.3784,2.3784,2.3784,0,0,2.3631,2.3638,2.3654,2.368,2.3688,2.3713,2.368,2.3707,2.3726,2.3699,2.3735,2.3738,2.3749,2.3792,2.3812,2.3796,2.3882,2.3854,2.3859,2.386,2.3885,2.3895,2.3903,2.3788,2.3787,2.3786,0,0,2.3693,2.3701,2.3735,2.3745,2.3758,2.3756,2.3764,2.3773,2.3774,2.3811,2.3791,2.3813,2.385,2.3858,2.3868,2.3937,2.392,2.3944,2.3982,2.4009,2.4017,2.4024,2.4048,2.4057,2.3949,2.3949,2.3949,0,2.3724,2.3762,2.3754,2.3784,2.3796,2.3776,2.381,2.3819,2.3838,2.3846,2.3829,2.3876,2.3882,2.3927,2.3945,2.3953,2.3962,2.3941,2.4017,2.4024,2.403,2.4053,2.4062,2.3952,2.3951,2.3951,2.3951,0,2.38,2.3827,2.3853,2.3873,2.3889,2.392,2.3917,2.3934,2.3926,2.3926,2.3964,2.3971,2.3991,2.4002,2.3993,2.4047,2.4037,2.4019,2.3987,2.4043,2.4064,2.4073,2.3956,2.3955,2.3954,2.3953,0,0,2.388,2.3899,2.3908,2.3918,2.3933,2.3953,2.3985,2.4007,2.4022,2.4036,2.4062,2.4095,2.4079,2.4089,2.4082,2.4105,2.416,2.4084,2.4084,2.4097,2.422,2.4232,2.4243,2.415,2.4152,2.4153,2.4218,0,2.3942,2.3997,2.3993,2.4045,2.407,2.4053,2.4081,2.4093,2.4095,2.4116,2.4118,2.4141,2.4118,2.4124,2.4147,2.4148,2.4184,2.4144,2.4173,2.4174,2.4169,2.4254,2.4267,2.4328,2.4227,2.4228,2.4229,0,2.4019,2.4039,2.4095,2.4108,2.4118,2.4143,2.4164,2.4185,2.4199,2.4199,2.4213,2.4202,2.4234,2.4204,2.4247,2.422,2.4232,2.4235,2.4238,2.4238,2.4203,2.4255,2.4347,2.4356,2.4242,2.4241,2.424,0,2.4072,2.4112,2.4151,2.416,2.4177,2.4195,2.4202,2.4215,2.4229,2.4247,2.4257,2.4278,2.4289,2.4306,2.4302,2.428,2.4347,2.4316,2.4346,2.4347,2.4359,2.4358,2.4453,2.437,2.437,2.437,2.4369,0,2.414,2.4174,2.4175,2.4199,2.4238,2.4233,2.4271,2.4276,2.4288,2.4312,2.4299,2.4321,2.4315,2.4338,2.4335,2.4372,2.4377,2.4377,2.4376,2.4377,2.4377,2.4383,2.4378,2.4372,2.4371,2.4371,2.4371,0,2.4203,2.4206,2.4247,2.4261,2.4265,2.4293,2.4304,2.4326,2.4329,2.436,2.4367,2.437,2.4396,2.4394,2.4423,2.4421,2.4466,2.446,2.4462,2.446,2.449,2.4487,2.4591,2.4604,2.4514,2.4515,2.4516,0,2.4245,2.4272,2.429,2.4306,2.4316,2.4341,2.4357,2.4354,2.437,2.439,2.441,2.4436,2.4456,2.4498,2.4502,2.4525,2.4519,2.4554,2.4522,2.4523,2.4518,2.4516,2.4518,2.4559,2.456,2.4561,2.4562,0,2.432,2.4321,2.4344,2.4369,2.4388,2.4407,2.4424,2.4438,2.4437,2.4456,2.4484,2.45,2.4531,2.4556,2.4579,2.4585,2.4573,2.4572,2.458,2.4581,2.4581,2.4581,2.4477,2.4569,2.4568,2.4568,2.4567,2.4567,2.4373,2.4397,2.4414,2.4441,2.4454,2.4471,2.4494,2.45,2.4524,2.455,2.4547,2.4578,2.4593,2.4622,2.4631,2.4655,2.4642,2.4654,2.4657,2.4659,2.4662,2.4579,2.4659,2.4659,2.4659,2.4658,2.4658,0,2.4446,2.4457,2.4483,2.4508,2.453,2.452,2.4539,2.4557,2.4585,2.4601,2.4622,2.4655,2.468,2.4688,2.4712,2.473,2.4725,2.4736,2.4734,2.4735,2.4673,2.4663,2.474,2.474,2.474,2.474,2.474,2.474,2.4486,2.4526,2.4529,2.4575,2.4586,2.4618,2.4629,2.4645,2.4658,2.4696,2.4717,2.4723,2.4736,2.4762,2.4784,2.4786,2.4795,2.4808,2.4807,2.4748,2.474,2.4732,2.4722,2.4811,2.4811,2.4868,2.4868,2.4869]},{"header":{"parameterUnit":"m.s-1","parameterCategory":1,"la1":30.2991,"la2":30.254,"lo1":-89.0895,"lo2":-89.0444,"dy":0.0017,"dx":0.0017,"nx":28,"ny":28,"refTime":"2025-08-03T03:00:00:Z","depth":0,"parameterNumber":3,"parameterNumberName":"V-component_of_WINDS"},"data":[0,0,0,0,0,0,0,0,0,0,0,0,0,0,0,0,0,0,0,0,0,0,0,0,0,0,0,0,0,0,0,0,0,0,0,0,0,0,0,0,0,0,0,0,0,0,0,0,0,0,0,0,0,0,0,0,0,0,0.4435,0.4436,0,0.4541,0.4542,0.4543,0.4598,0.4598,0.4599,0.4599,0.471,0.4713,0.4716,0,0,0,0,0,0,0,0,0,0,0,0,0,0.4283,0.4285,0.4435,0.4436,0.4437,0.454,0.4542,0.4543,0.4598,0.4598,0.4599,0.4599,0.4709,0.4713,0.4716,0,0,0,0,0,0,0,0,0,0,0,0,0,0.4365,0.4286,0.4434,0.4477,0.4482,0.454,0.4542,0.4544,0.4598,0.4598,0.4599,0.4599,0.4708,0.4713,0.4717,0.4742,0,0,0.473,0.4732,0,0,0,0,0,0,0,0,0.436,0.437,0.447,0.4474,0.448,0.4556,0.4529,0.461,0.4598,0.4554,0.4599,0.4599,0.4659,0.4668,0.4687,0.4747,0.4752,0.4731,0.4733,0.4735,0.4736,0,0,0,0,0,0,0,0.4354,0.4366,0.4477,0.4471,0.4477,0.4492,0.4504,0.4545,0.4605,0.4558,0.4562,0.4574,0.4662,0.4683,0.469,0.4753,0.473,0.4734,0.4737,0.4739,0.4837,0.4837,0,0,0,0,0,0,0.4341,0.4361,0.4473,0.448,0.4419,0.4494,0.4508,0.4532,0.4605,0.4616,0.4574,0.4576,0.4676,0.4685,0.4695,0.4727,0.4735,0.4739,0.4742,0.4837,0.4837,0.4837,0,0,0,0,0,0,0.4338,0.4351,0.4469,0.4422,0.4438,0.4497,0.4524,0.4534,0.4555,0.4616,0.4628,0.4584,0.4676,0.4688,0.4729,0.4732,0.4741,0.4745,0.4837,0.4837,0.4837,0.4794,0,0,0,0,0,0,0.4333,0.4349,0.4359,0.4421,0.444,0.4501,0.4524,0.4536,0.4562,0.4566,0.4629,0.464,0.4677,0.4722,0.4733,0.4738,0.4748,0.4837,0.4837,0.4837,0.4795,0.4792,0.479,0,0,0,0,0,0.4328,0.4343,0.4359,0.4372,0.4453,0.4501,0.4512,0.4554,0.4562,0.4572,0.4611,0.4638,0.473,0.4726,0.4739,0.4745,0.4837,0.4837,0.4837,0.4796,0.4793,0.479,0,0,0,0,0,0,0.4281,0.4352,0.4371,0.4407,0.4447,0.451,0.4525,0.4549,0.4589,0.4591,0.4642,0.4656,0.4691,0.4723,0.4717,0.4772,0.4786,0.4789,0.4751,0.4748,0.4745,0.4737,0.4752,0,0,0,0,0,0.4275,0.4307,0.4368,0.4394,0.4413,0.4465,0.4488,0.4516,0.456,0.4578,0.4621,0.4664,0.4702,0.4727,0.4766,0.48,0.4814,0.4811,0.4808,0.4805,0.4807,0.4826,0.4825,0.4837,0.4837,0.4837,0,0,0.4263,0.4306,0.4323,0.4386,0.442,0.4453,0.4479,0.4513,0.4538,0.4584,0.4624,0.4657,0.4708,0.4745,0.4763,0.4772,0.4807,0.4805,0.4803,0.4806,0.4826,0.4825,0.4824,0.4837,0.4837,0.4837,0,0,0.4257,0.4293,0.4318,0.4352,0.4403,0.4437,0.4443,0.4502,0.4525,0.4566,0.4601,0.4632,0.4697,0.4732,0.4758,0.4764,0.4789,0.4775,0.4761,0.4779,0.4778,0.4778,0.4779,0.4779,0.4777,0.4777,0.4776,0,0.4236,0.4285,0.4328,0.4359,0.4386,0.4427,0.4453,0.4484,0.4546,0.4564,0.4572,0.4654,0.4692,0.4737,0.4738,0.4758,0.4766,0.4768,0.4775,0.4774,0.4775,0.4776,0.4777,0.4774,0.4775,0.4775,0.4775,0,0.4256,0.429,0.4304,0.4361,0.4389,0.4418,0.4465,0.4489,0.4514,0.4547,0.4588,0.4634,0.4683,0.4696,0.4722,0.4744,0.4748,0.4765,0.478,0.4771,0.4773,0.4774,0.4771,0.4772,0.4773,0.4773,0,0,0.4226,0.4304,0.4309,0.4335,0.4394,0.4421,0.4451,0.4497,0.4516,0.4557,0.4584,0.4637,0.4653,0.4682,0.4713,0.4729,0.4729,0.4744,0.4746,0.4739,0.4755,0.4741,0.4742,0.4746,0.4746,0.4746,0.475,0,0.4228,0.4283,0.4321,0.4361,0.4393,0.4432,0.4458,0.4497,0.4529,0.4561,0.4596,0.4633,0.4651,0.4669,0.4686,0.4725,0.4733,0.4725,0.4771,0.4772,0.4756,0.4743,0.4729,0.4731,0.4752,0.4752,0.4752,0,0.4238,0.4276,0.4319,0.4373,0.4388,0.441,0.4455,0.4485,0.453,0.4552,0.4584,0.4614,0.4648,0.4659,0.4706,0.47,0.4721,0.4743,0.4744,0.475,0.4761,0.4748,0.4733,0.4733,0.4754,0.4754,0.4754,0,0.421,0.4272,0.4306,0.4327,0.4391,0.4406,0.4434,0.4479,0.4504,0.4543,0.4559,0.4602,0.4626,0.4659,0.47,0.4705,0.4742,0.4758,0.4762,0.476,0.4768,0.4767,0.4755,0.4782,0.4782,0.4782,0.4782,0,0.4209,0.4233,0.4294,0.4314,0.4342,0.4387,0.4414,0.4445,0.4484,0.4512,0.4549,0.4574,0.4627,0.4659,0.4691,0.4725,0.4735,0.4754,0.4762,0.4751,0.4748,0.4765,0.4766,0.4782,0.4782,0.4782,0.4782,0,0.4183,0.4224,0.4263,0.432,0.4335,0.4353,0.4402,0.4424,0.4457,0.4491,0.4501,0.4554,0.4592,0.4637,0.4691,0.4713,0.4743,0.4756,0.4727,0.4732,0.4733,0.4732,0.4732,0.4734,0.4759,0.4759,0.4758,0,0.4179,0.4199,0.4257,0.4277,0.4303,0.4336,0.4361,0.4405,0.4429,0.4481,0.4496,0.4537,0.4573,0.4633,0.4676,0.4717,0.4731,0.4728,0.4737,0.4724,0.473,0.4728,0.473,0.4725,0.4725,0.4724,0.4724,0,0.4168,0.4187,0.4221,0.4261,0.4289,0.4323,0.436,0.4374,0.4426,0.4451,0.449,0.4518,0.4572,0.4612,0.4658,0.4688,0.4714,0.472,0.4723,0.4711,0.4694,0.4702,0.472,0.472,0.4721,0.4721,0.4721,0.4721,0.4153,0.4171,0.4215,0.4251,0.4282,0.4314,0.4336,0.4371,0.4405,0.4451,0.4475,0.4514,0.4558,0.4622,0.465,0.4681,0.469,0.4695,0.4696,0.4696,0.4692,0.4688,0.469,0.469,0.4691,0.4691,0.4691,0,0.4143,0.4172,0.4205,0.4253,0.4281,0.4302,0.4343,0.4365,0.4398,0.4436,0.4469,0.4514,0.4553,0.4598,0.464,0.4656,0.4669,0.4665,0.4664,0.4671,0.4683,0.4675,0.4654,0.4654,0.4654,0.4654,0.4654,0.4654,0.4141,0.4173,0.4197,0.4244,0.4274,0.4311,0.4332,0.4362,0.4392,0.444,0.4472,0.45,0.4541,0.4586,0.4622,0.4635,0.4648,0.4641,0.4656,0.4667,0.467,0.4673,0.4666,0.4643,0.4643,0.4642,0.4642,0.4642]}]]